Weather in Hořovice

Czech Republic     49°50′10″N   13°54′11″E
temp.,
°C
wind,
m/s
gust,
m/s
humid.,
%
clouds,
%
prec.,
mm/h
press.,
hPa
HPBL,
m
24 january, sun
sun2401:00−2s1296100 0.3 99728
04:00−3s2297100 0.0 99632
07:00−3s2397100 0.0 99681
10:000sw51196100 2.4 997849
13:00−1wsw7138295 2.7 9971128
16:00−1wsw7138893 0.1 9981118
19:00−1w6139288 0.3 998832
22:00−1w6129296 0.4 999834
25 january, mon
mon2501:00−2w5119387 0.5 1000549
04:00−4w499559 0.0 1001296
07:00−5w269657 0.0 1002148
10:00−3w368956 0.0 1003236
13:00−1wnw238278 0.0 1003454
16:00−2wnw2492100 0.0 1004165
19:00−3wnw1395100 0.0 1007119
22:00−3wnw2696100 0.1 1009260
26 january, tue
tue2601:00−4w389476 0.1 1011216
04:00−4w6129080 0.0 1012485
07:00−4w7148975 0.0 1013622
10:00−2w71386100 0.1 1014819
13:00−1w8148769 0.4 10151080
16:00−1w8137895 0.1 10151111
19:00−2w8148498 0.1 1016934
22:00−2w81585100 0.1 1016969
27 january, wed
wed2701:00−2w8158696 0.3 1015910
04:00−3w7159075 0.1 1015785
07:00−3w7138981 0.3 1016737
10:00−2w7138683 0.1 1016735
13:00−1w7118490 0.1 1016943
16:000w51183100 0.1 1016828
19:00−2w51191100 0.1 1018535
22:00−3wsw5109265 0.0 1018367
28 january, thu
thu2801:00−3wsw4109381 0.1 1017357
04:00−2wsw31196100 0.2 1014421
07:000wsw2798100 0.4 1011293
10:00+1s2499100 1.3 1008161
13:00+1s3698100 3.7 1005258
16:00+2ssw31098100 2.3 1002327
19:00+5w81795100 4.5 10011004
22:00+6w81791100 0.8 1001923